[[{"header":{"parameterUnit":"m.s-1","parameterCategory":1,"la1":30.2991,"la2":30.254,"lo1":-89.0895,"lo2":-89.0444,"dy":0.0017,"dx":0.0017,"nx":28,"ny":28,"refTime":"2024-08-20T21:00:00:Z","depth":0,"parameterNumber":2,"parameterNumberName":"U-component_of_WINDS"},"data":[0,0,0,0,0,0,0,0,0,0,0,0,0,0,0,0,0,0,0,0,0,0,0,0,0,0,0,0,0,0,0,0,0,0,0,0,0,0,0,0,0,0,0,0,0,0,0,0,0,0,0,0,0,0,0,0,0,0,0.1922,0.1922,0,0.1937,0.1937,0.1937,0.2015,0.2017,0.2018,0.202,0.203,0.2028,0.2027,0,0,0,0,0,0,0,0,0,0,0,0,0,0.1956,0.1955,0.1922,0.1922,0.1922,0.1937,0.1937,0.1937,0.2014,0.2017,0.2019,0.2021,0.203,0.2029,0.2027,0,0,0,0,0,0,0,0,0,0,0,0,0,0.1953,0.1955,0.1922,0.1963,0.1967,0.1937,0.1937,0.1937,0.2014,0.2017,0.202,0.2022,0.2031,0.2029,0.2027,0.1957,0,0,0.202,0.2019,0,0,0,0,0,0,0,0,0.1953,0.1952,0.1956,0.196,0.1964,0.1977,0.1953,0.1944,0.2013,0.1996,0.202,0.2024,0.201,0.2009,0.2006,0.1957,0.1958,0.202,0.2018,0.2017,0.2017,0,0,0,0,0,0,0,0.1953,0.1952,0.1928,0.1956,0.1961,0.1979,0.1982,0.1951,0.1987,0.1997,0.2003,0.2004,0.2012,0.2008,0.2007,0.1958,0.202,0.2018,0.2016,0.2015,0.1853,0.185,0,0,0,0,0,0,0.1948,0.1951,0.1927,0.1928,0.1966,0.1976,0.1979,0.197,0.1987,0.1993,0.2002,0.2008,0.201,0.2009,0.2007,0.1926,0.2017,0.2015,0.2014,0.1856,0.1852,0.1849,0,0,0,0,0,0,0.1949,0.1946,0.1927,0.1941,0.194,0.1973,0.1962,0.1969,0.1964,0.1991,0.1997,0.1991,0.2012,0.201,0.1969,0.1928,0.2014,0.2012,0.186,0.1855,0.1851,0.1763,0,0,0,0,0,0,0.195,0.1945,0.192,0.194,0.1939,0.1889,0.1959,0.1967,0.1961,0.1969,0.1982,0.1987,0.2014,0.1972,0.1967,0.1926,0.201,0.1863,0.1858,0.1852,0.177,0.1757,0.1745,0,0,0,0,0,0.1951,0.1893,0.1918,0.1915,0.1908,0.1887,0.1886,0.192,0.1957,0.1931,0.1948,0.1986,0.1934,0.1967,0.1962,0.192,0.1866,0.1859,0.1853,0.1776,0.1759,0.1745,0,0,0,0,0,0,0.1865,0.1897,0.1924,0.1872,0.1877,0.19,0.1868,0.1902,0.1893,0.1901,0.1943,0.1945,0.1897,0.1905,0.1942,0.1854,0.1906,0.1898,0.185,0.1834,0.1822,0.182,0.2009,0,0,0,0,0,0.184,0.1821,0.185,0.1801,0.1802,0.1835,0.1826,0.1853,0.1858,0.1859,0.1874,0.1875,0.186,0.1848,0.1835,0.1773,0.1776,0.1741,0.1729,0.1718,0.171,0.1677,0.1662,0.1827,0.1827,0.1827,0,0,0.1788,0.1804,0.1789,0.1784,0.1791,0.1769,0.1835,0.1809,0.1793,0.1855,0.1817,0.1828,0.1833,0.1781,0.1759,0.1786,0.1666,0.171,0.1701,0.1698,0.1669,0.1653,0.1639,0.1823,0.1824,0.1824,0,0,0.1682,0.1693,0.1653,0.1659,0.1668,0.1691,0.1681,0.17,0.171,0.1674,0.172,0.1701,0.1672,0.1674,0.1671,0.1568,0.1602,0.1563,0.1496,0.1464,0.145,0.1439,0.1401,0.1387,0.1555,0.1555,0.1555,0,0.1615,0.1586,0.1628,0.1599,0.1596,0.1654,0.1613,0.1616,0.162,0.1615,0.1647,0.1613,0.1621,0.157,0.1545,0.1541,0.1531,0.156,0.1449,0.1438,0.1428,0.1392,0.1378,0.155,0.1551,0.1551,0.1552,0,0.1503,0.1482,0.1449,0.1453,0.1446,0.1412,0.1447,0.1435,0.1463,0.1482,0.1444,0.1456,0.1446,0.1436,0.1462,0.1389,0.1405,0.1442,0.1496,0.1407,0.1373,0.136,0.1543,0.1545,0.1546,0.1547,0,0,0.1339,0.137,0.1357,0.136,0.1376,0.136,0.1328,0.1321,0.1309,0.131,0.1283,0.126,0.1294,0.1291,0.1318,0.129,0.1207,0.1331,0.1332,0.1306,0.1125,0.1095,0.1079,0.1231,0.1229,0.1227,0.1124,0,0.1237,0.1185,0.1223,0.1164,0.1145,0.1201,0.1174,0.118,0.1197,0.1182,0.1201,0.1183,0.1231,0.123,0.1205,0.1222,0.1171,0.1231,0.1204,0.1203,0.1198,0.1062,0.103,0.0932,0.1112,0.1109,0.1108,0,0.1109,0.1107,0.1047,0.1068,0.1061,0.1035,0.1032,0.1018,0.1026,0.1041,0.1038,0.1073,0.1043,0.1098,0.1055,0.1095,0.1087,0.1094,0.1091,0.1088,0.1148,0.1052,0.0902,0.0886,0.1088,0.109,0.1091,0,0.0993,0.0976,0.0938,0.0939,0.0963,0.0943,0.0952,0.0964,0.0957,0.0954,0.095,0.0943,0.0938,0.0931,0.0963,0.1,0.0915,0.0973,0.0924,0.0923,0.0901,0.0902,0.0745,0.09,0.0901,0.0901,0.0901,0,0.0873,0.0833,0.0886,0.0862,0.082,0.0864,0.082,0.0835,0.0845,0.0824,0.0872,0.0851,0.0896,0.0879,0.0904,0.0864,0.0862,0.0872,0.0878,0.0866,0.0864,0.0859,0.0865,0.0897,0.0898,0.0899,0.0899,0,0.0735,0.0769,0.0731,0.0758,0.0764,0.0731,0.0754,0.0732,0.0755,0.0727,0.0723,0.0757,0.074,0.0772,0.0759,0.0776,0.0719,0.0738,0.0716,0.0721,0.067,0.0673,0.0502,0.0481,0.0652,0.065,0.0649,0,0.0654,0.0625,0.065,0.0641,0.0648,0.0632,0.0626,0.0669,0.0661,0.0669,0.0646,0.0634,0.0626,0.0596,0.0618,0.0608,0.0625,0.0566,0.0624,0.0612,0.0622,0.0622,0.0619,0.0553,0.0551,0.0549,0.0548,0,0.0507,0.0526,0.0517,0.0514,0.0506,0.0505,0.0508,0.0497,0.0543,0.0531,0.0515,0.0509,0.0497,0.0483,0.0479,0.0487,0.0524,0.053,0.0518,0.0503,0.0492,0.0496,0.0681,0.0533,0.0535,0.0536,0.0536,0.0537,0.0393,0.0371,0.0385,0.0373,0.0381,0.0382,0.0364,0.0385,0.0373,0.0367,0.0394,0.0372,0.0382,0.0381,0.0385,0.0368,0.0394,0.0376,0.0371,0.0366,0.0357,0.0497,0.0367,0.0368,0.0368,0.0368,0.0369,0,0.0247,0.026,0.0249,0.0252,0.0243,0.0283,0.0288,0.0276,0.0257,0.0265,0.0257,0.0239,0.0227,0.0249,0.024,0.0222,0.0239,0.0218,0.0218,0.0219,0.0335,0.0345,0.0205,0.0205,0.0205,0.0205,0.0205,0.0205,0.0169,0.0133,0.0154,0.0121,0.0134,0.0115,0.0114,0.0116,0.0122,0.01,0.0091,0.0107,0.012,0.0113,0.0103,0.011,0.0103,0.0076,0.0088,0.0195,0.0211,0.0226,0.0236,0.0075,0.0074,-0.0026,-0.0027,-0.0028]},{"header":{"parameterUnit":"m.s-1","parameterCategory":1,"la1":30.2991,"la2":30.254,"lo1":-89.0895,"lo2":-89.0444,"dy":0.0017,"dx":0.0017,"nx":28,"ny":28,"refTime":"2024-08-20T21:00:00:Z","depth":0,"parameterNumber":3,"parameterNumberName":"V-component_of_WINDS"},"data":[0,0,0,0,0,0,0,0,0,0,0,0,0,0,0,0,0,0,0,0,0,0,0,0,0,0,0,0,0,0,0,0,0,0,0,0,0,0,0,0,0,0,0,0,0,0,0,0,0,0,0,0,0,0,0,0,0,0,-2.4879,-2.4881,0,-2.4991,-2.4992,-2.4994,-2.5008,-2.5007,-2.5006,-2.5005,-2.5117,-2.5121,-2.5125,0,0,0,0,0,0,0,0,0,0,0,0,0,-2.4677,-2.468,-2.4879,-2.4881,-2.4882,-2.4991,-2.4992,-2.4994,-2.5008,-2.5007,-2.5006,-2.5005,-2.5116,-2.5121,-2.5126,0,0,0,0,0,0,0,0,0,0,0,0,0,-2.4774,-2.4682,-2.4879,-2.4903,-2.4906,-2.4991,-2.4992,-2.4994,-2.5009,-2.5007,-2.5006,-2.5004,-2.5115,-2.512,-2.5126,-2.5195,0,0,-2.5145,-2.5147,0,0,0,0,0,0,0,0,-2.4769,-2.4782,-2.4898,-2.4901,-2.4905,-2.4984,-2.4962,-2.5061,-2.5009,-2.497,-2.5005,-2.5003,-2.5074,-2.5083,-2.5108,-2.52,-2.5205,-2.5145,-2.5149,-2.5151,-2.5153,0,0,0,0,0,0,0,-2.4762,-2.4777,-2.4923,-2.4899,-2.4904,-2.4907,-2.4919,-2.4981,-2.5029,-2.4973,-2.4974,-2.4987,-2.5076,-2.5102,-2.5111,-2.5207,-2.5145,-2.515,-2.5154,-2.5156,-2.5359,-2.5361,0,0,0,0,0,0,-2.4751,-2.4771,-2.492,-2.4927,-2.4831,-2.4912,-2.4925,-2.496,-2.5029,-2.5038,-2.4989,-2.4988,-2.5093,-2.5104,-2.5115,-2.5198,-2.5151,-2.5157,-2.516,-2.5358,-2.536,-2.5362,0,0,0,0,0,0,-2.4747,-2.4764,-2.4915,-2.4849,-2.4869,-2.4917,-2.4956,-2.4963,-2.4989,-2.5041,-2.5049,-2.5007,-2.5092,-2.5106,-2.5175,-2.5202,-2.5159,-2.5165,-2.5356,-2.5358,-2.5361,-2.5367,0,0,0,0,0,0,-2.4741,-2.4763,-2.4789,-2.485,-2.4872,-2.4974,-2.4958,-2.4967,-2.5,-2.5,-2.506,-2.5068,-2.5092,-2.5166,-2.5181,-2.521,-2.517,-2.5353,-2.5357,-2.536,-2.5364,-2.5369,-2.5374,0,0,0,0,0,-2.4733,-2.4786,-2.4791,-2.4809,-2.4907,-2.4976,-2.4989,-2.5015,-2.5002,-2.5029,-2.5062,-2.5066,-2.5197,-2.5173,-2.5189,-2.5221,-2.5352,-2.5356,-2.536,-2.5362,-2.5368,-2.5374,0,0,0,0,0,0,-2.4727,-2.4795,-2.48,-2.4875,-2.4919,-2.4978,-2.5013,-2.5021,-2.507,-2.5068,-2.5098,-2.5111,-2.5178,-2.5207,-2.5178,-2.529,-2.5273,-2.5281,-2.5269,-2.5276,-2.528,-2.5271,-2.5174,0,0,0,0,0,-2.4735,-2.4786,-2.4842,-2.4902,-2.4924,-2.4965,-2.4996,-2.5012,-2.506,-2.5078,-2.5116,-2.5162,-2.5213,-2.5246,-2.5296,-2.5369,-2.5382,-2.5399,-2.5404,-2.5407,-2.5413,-2.5453,-2.5461,-2.5375,-2.5375,-2.5375,0,0,-2.475,-2.4794,-2.4824,-2.4901,-2.4938,-2.4989,-2.498,-2.5035,-2.5073,-2.5087,-2.5153,-2.5183,-2.5235,-2.5306,-2.5339,-2.5332,-2.544,-2.5412,-2.5415,-2.5419,-2.5458,-2.5466,-2.5473,-2.5378,-2.5378,-2.5377,0,0,-2.4805,-2.4843,-2.4897,-2.4934,-2.499,-2.5016,-2.5029,-2.5087,-2.5107,-2.5175,-2.5186,-2.5231,-2.532,-2.5356,-2.5386,-2.5455,-2.546,-2.547,-2.5494,-2.5532,-2.5539,-2.5545,-2.5568,-2.5576,-2.5476,-2.5476,-2.5476,0,-2.4816,-2.4895,-2.4923,-2.4977,-2.5011,-2.5026,-2.508,-2.5115,-2.5184,-2.5206,-2.5198,-2.5308,-2.5345,-2.5423,-2.544,-2.5465,-2.5479,-2.5463,-2.5536,-2.5542,-2.5548,-2.5571,-2.5579,-2.5477,-2.5477,-2.5477,-2.5477,0,-2.4906,-2.496,-2.4996,-2.5063,-2.5101,-2.5155,-2.5191,-2.5226,-2.5239,-2.5266,-2.5335,-2.5379,-2.5438,-2.5459,-2.5472,-2.5539,-2.5533,-2.553,-2.5513,-2.5557,-2.5578,-2.5587,-2.5478,-2.5478,-2.5477,-2.5477,0,0,-2.4958,-2.5041,-2.5053,-2.5083,-2.5146,-2.5188,-2.5243,-2.5301,-2.5329,-2.5377,-2.5422,-2.5497,-2.5494,-2.5528,-2.5546,-2.558,-2.5629,-2.5572,-2.5574,-2.558,-2.5705,-2.5706,-2.5715,-2.5634,-2.5636,-2.5637,-2.57,0,-2.5019,-2.5116,-2.5144,-2.5226,-2.5275,-2.5291,-2.5338,-2.5381,-2.5409,-2.5454,-2.5484,-2.5536,-2.5529,-2.5549,-2.5584,-2.5616,-2.5654,-2.5612,-2.5675,-2.5677,-2.566,-2.5727,-2.5728,-2.5785,-2.5708,-2.571,-2.5711,0,-2.5102,-2.5151,-2.5238,-2.5294,-2.5316,-2.5358,-2.5413,-2.5457,-2.5506,-2.5523,-2.5562,-2.5577,-2.5633,-2.5614,-2.5692,-2.5662,-2.569,-2.5709,-2.5712,-2.5718,-2.5696,-2.5733,-2.5804,-2.5812,-2.5725,-2.5724,-2.5723,0,-2.513,-2.5218,-2.5281,-2.5307,-2.5374,-2.5403,-2.5432,-2.548,-2.5513,-2.5561,-2.5583,-2.5637,-2.5666,-2.5707,-2.5736,-2.572,-2.5811,-2.5795,-2.5826,-2.5825,-2.5843,-2.5841,-2.5918,-2.5863,-2.5863,-2.5863,-2.5863,0,-2.5193,-2.5245,-2.5294,-2.5333,-2.5392,-2.5423,-2.548,-2.551,-2.5552,-2.5596,-2.5614,-2.5655,-2.5691,-2.5737,-2.576,-2.5819,-2.5833,-2.5848,-2.5853,-2.5845,-2.5843,-2.5863,-2.5859,-2.5865,-2.5865,-2.5864,-2.5864,0,-2.5233,-2.5268,-2.5338,-2.5396,-2.5412,-2.5453,-2.5502,-2.554,-2.5568,-2.5624,-2.5639,-2.5683,-2.5737,-2.5771,-2.584,-2.5855,-2.5921,-2.5925,-2.5904,-2.5906,-2.5935,-2.5931,-2.6026,-2.6039,-2.5977,-2.5977,-2.5978,0,-2.5271,-2.5311,-2.5374,-2.5405,-2.5435,-2.5485,-2.5519,-2.5551,-2.5586,-2.5645,-2.5675,-2.5731,-2.5777,-2.5864,-2.5901,-2.5954,-2.5959,-2.5989,-2.5967,-2.5958,-2.5958,-2.5954,-2.5958,-2.5991,-2.5992,-2.5992,-2.5993,0,-2.5333,-2.5349,-2.5397,-2.5452,-2.5492,-2.5537,-2.5581,-2.5605,-2.5645,-2.5682,-2.5739,-2.5775,-2.5846,-2.59,-2.5957,-2.5986,-2.5996,-2.6,-2.6009,-2.6001,-2.5987,-2.5994,-2.5912,-2.5997,-2.5996,-2.5996,-2.5996,-2.5996,-2.5372,-2.5409,-2.5458,-2.5512,-2.5549,-2.559,-2.5628,-2.5661,-2.5709,-2.5769,-2.5785,-2.5844,-2.5892,-2.5968,-2.5999,-2.6045,-2.604,-2.6055,-2.6058,-2.6061,-2.606,-2.5981,-2.6055,-2.6055,-2.6055,-2.6055,-2.6055,0,-2.5434,-2.5467,-2.5516,-2.5578,-2.5619,-2.5626,-2.5675,-2.571,-2.5761,-2.5805,-2.5851,-2.5915,-2.5968,-2.601,-2.6065,-2.6094,-2.6099,-2.6107,-2.6104,-2.611,-2.6062,-2.6048,-2.6101,-2.6101,-2.6101,-2.6101,-2.6101,-2.6101,-2.5471,-2.5533,-2.5554,-2.5634,-2.5667,-2.5725,-2.5752,-2.579,-2.5825,-2.5896,-2.5941,-2.5968,-2.6011,-2.6069,-2.6118,-2.6129,-2.6147,-2.6154,-2.6165,-2.6119,-2.6114,-2.6109,-2.6095,-2.6158,-2.6158,-2.6209,-2.621,-2.621]}]]